SL-12 DEB, 43527

Orbit data source: Space-Track

SL-12 DEB, 43527 is space debris in HEO originally from a launch on Mon, 01 Mar 2010 UTC launched from the Tyuratam Missile And Space Complex (TTMTR). Debris objects in space refer to the collection of defunct objects orbiting the Earth. Examples of debris include non-operational satellites, rocket bodies, and fragments generated from explosions, collisions, or faulty payload assembly.

Loading next visibility...
Identifier
43527, 2010-007Z
Orbit
HEO
Country
Flag of CISCIS
Related business
Manufacturer
RKKE
Mission
Spacecraft
Bus & Motor
Unknown
Mass
Unknown
Launch date (UTC)
2010-03-01 (16 years ago)
Launch vehicle
Unknown
Launch site
Tyuratam Missile And Space Complex (TTMTR)
Object type
Payload
Rocket body
Debris
Shape & HBR
Unknown shape, 0.6 m
Radar Cross Section
Medium (>0.1 m² and <1 m²)

Expand to show TLE details & history
Last TLE update: 3 days ago

TLE from 3 days ago
0 SL-12 DEB
1 43527U 10007Z   25310.14133102  .00000219  00000-0  19649-2 0  9998
2 43527  65.0114 264.0869 5614365 305.6553  14.1031  4.26475031114459
Epoch: 2025-11-06T03:23Z
TLE epoch observation values (Epoch: 2025-11-06T03:23:31.000Z)
Latitude
0.00023°
Longitude
167.58298°
Altitude
1,911.952 km
Speed
8.448 km/s
True Right ascension
17h 36m 15s
True Declination
0° 00' 01"
Sunlit
Object was in daylight at epoch
Visualization orbit readout
Latitude
Unknown
Longitude
Unknown
Altitude
Unknown
Speed
Unknown
Apparent Right ascension
Unknown
Apparent Declination
Unknown
Sunlit
N/A
Visualization observer readout
Local Sidereal Time
10:26:24
Azimuth
Unknown
Elevation
Unknown
Doppler factor
Unknown
Orbital elements
Apogee altitude
18,700.291 km
Perigee altitude
665.686 km
Semi-major axis
16,061.125 km
Eccentricity
0.56144
Inclination
65.0114°
RAAN
264.0869°
Arg. of periapsis
305.6553°
True anomaly
54.22581°
Mean anomaly
14.1031°
Eccentric anomaly
30.36347°
Mean motion
1.0663 °/min
Orbital period
337.62 mins
BSTAR
0.0019649
Loading maneuver chart data...
Computing Atmospheric mass density...
Loading historical data...
Loading historical data...
Loading historical data...
Loading historical data...
Loading historical data...
Loading historical data...
Loading historical data...

Documentation

Showing up to 5 results
|